CST,Max TemperatureF,Mean TemperatureF,Min TemperatureF,Max Dew PointF,MeanDew PointF,Min DewpointF,Max Humidity, Mean Humidity, Min Humidity, Max Sea Level PressureIn, Mean Sea Level PressureIn, Min Sea Level PressureIn, Max VisibilityMiles, Mean VisibilityMiles, Min VisibilityMiles, Max Wind SpeedMPH, Mean Wind SpeedMPH, Max Gust SpeedMPH,PrecipitationIn, CloudCover, Events, WindDirDegrees
2012-12-1,73,62,52,56,52,48,86,73,51,30.21,30.15,30.09,10,10,10,13,4,18,0.00,3,,163
2012-12-2,75,68,60,63,60,56,94,82,64,30.22,30.16,30.12,10,10,9,13,7,20,0.00,5,,187
2012-12-3,73,66,60,62,60,57,94,79,61,30.16,30.10,30.04,10,10,6,13,6,26,0.00,5,,176
2012-12-4,75,67,59,64,60,57,96,85,64,30.20,30.13,30.06,10,9,1,16,8,25,0.53,7,Rain-Thunderstorm,193
2012-12-5,59,56,53,57,51,48,100,87,77,30.26,30.19,30.08,10,8,2,9,5,,0.01,8,Rain,22
2012-12-6,64,58,53,61,56,50,100,89,77,30.06,29.99,29.93,10,8,1,7,1,,0.02,8,Rain,151
2012-12-7,68,62,57,59,56,54,96,84,63,29.97,29.91,29.85,10,9,4,10,5,,0.00,7,,204
2012-12-8,68,64,60,64,61,57,97,91,81,29.94,29.89,29.86,10,7,1,13,5,16,0.50,7,Rain-Thunderstorm,185
2012-12-9,73,66,60,66,63,57,94,87,73,29.91,29.85,29.75,10,9,5,14,9,25,0.13,6,Rain-Thunderstorm,197
2012-12-10,59,46,33,55,42,27,94,79,46,30.12,29.91,29.80,10,8,4,10,6,20,0.30,5,Rain-Thunderstorm,343
2012-12-11,46,37,28,27,25,23,88,70,41,30.27,30.19,30.10,10,10,10,8,2,,0.00,0,,37
2012-12-12,53,39,25,29,25,16,92,67,24,30.38,30.32,30.27,10,10,10,8,1,,0.00,0,,60
2012-12-13,57,42,27,31,26,22,89,62,26,30.40,30.34,30.29,10,10,10,7,1,,0.00,0,,128
2012-12-14,61,48,36,48,37,29,89,62,38,30.29,30.18,30.01,10,10,10,7,4,,0.01,3,Rain,145
2012-12-15,69,62,54,65,59,45,96,88,72,30.02,29.89,29.83,10,9,2,17,9,22,0.58,7,Rain-Thunderstorm,194
2012-12-16,66,63,60,64,61,57,100,93,82,29.84,29.79,29.71,10,9,0,10,5,17,0.09,7,Fog-Rain-Thunderstorm,205
2012-12-17,66,55,44,57,50,39,96,79,40,29.89,29.76,29.70,10,10,9,15,7,22,0.01,3,,250
2012-12-18,68,52,37,47,41,34,89,66,37,29.94,29.88,29.82,10,10,10,13,4,17,0.00,0,,180
2012-12-19,73,62,50,61,53,48,93,70,52,29.93,29.81,29.65,10,10,10,13,8,25,0.00,3,Rain,168
2012-12-20,70,54,37,65,36,16,88,57,34,30.28,29.92,29.60,10,9,2,24,14,41,0.18,3,Rain,268
2012-12-21,55,42,30,26,18,12,79,46,20,30.44,30.36,30.29,10,10,9,9,5,,0.00,0,Snow,279
2012-12-22,63,46,28,30,24,18,85,43,18,30.35,30.25,30.12,10,10,10,10,4,18,0.00,0,,223
2012-12-23,63,56,50,58,50,33,88,77,50,30.11,29.95,29.82,10,10,10,14,8,20,0.01,7,Rain,184
2012-12-24,64,56,48,59,49,42,93,79,60,29.96,29.89,29.80,10,10,10,10,6,16,0.00,4,,288
2012-12-25,48,40,33,45,36,30,100,90,79,29.92,29.74,29.49,10,5,1,26,11,37,1.48,7,Rain-Snow-Thunderstorm,16
2012-12-26,35,32,28,31,29,26,93,85,72,30.23,30.04,29.78,10,9,2,15,9,23,0.00,7,Snow,300
2012-12-27,42,34,26,35,29,22,92,80,62,30.21,30.13,30.01,10,9,6,9,3,,0.00,2,,112
2012-12-28,42,40,37,40,38,35,100,92,87,30.05,29.91,29.79,10,5,2,13,6,21,0.93,8,Rain,26
2012-12-29,39,33,26,34,25,20,87,69,45,30.45,30.26,30.05,10,10,10,13,8,22,0.00,3,,295
2012-12-30,46,34,21,31,24,19,89,68,39,30.55,30.45,30.34,10,10,8,7,2,,0.00,0,,140
2012-12-31,50,43,36,48,40,31,100,84,61,30.32,30.12,29.99,10,8,3,10,3,17,0.78,7,Rain,153